Location: ????????
(37.6846°N, 24.0673°E)
Time: 13:50:04
(UTC+00:00)

Cosmos 1190 Rocket - Pass Details

Date: 14 July 2020
Orbit: 756 x 781 km, 74.1° (Epoch: 04 August)

Event Time Altitude Azimuth Distance (km) Brightness Sun altitude
Exits shadow 00:26:21 57° 270° (W) 893 4.1 -24.6°
Maximum altitude 00:26:44 59° 291° (WNW) 880 4.1 -24.6°
Drops below altitude 10° 00:31:54 10° 10° (N) 2,311 7.4 -24.1°
Sets 00:34:20 0° 15° (NNE) 3,245 8.5 -23.8°
